Location: Tierra Monte Subdivision
(35.2092°N, 106.4864°W)
Time: 11:48:32
(UTC+00:00)

Cosmos 1900 - Pass Details

Date: 30 March 2020
Orbit: 686 x 735 km, 66.1° (Epoch: 03 June)

Event Time Altitude Azimuth Distance (km) Brightness Sun altitude
Exits shadow 11:36:14 13° 200° (SSW) 1,943 6.3 -16.5°
Maximum altitude 11:40:34 75° 116° (ESE) 711 4.4 -15.7°
Drops below altitude 10° 11:45:25 10° 31° (NNE) 2,138 7.5 -14.7°
Sets 11:47:45 0° 30° (NNE) 3,060 8.4 -14.3°
